Tracking 28915 objects as of 29-May-2024
HD Live streaming from Space Station
objects crossing your sky now

STARLINK-6045

Track STARLINK-6045 now!
10-day predictions
STARLINK-6045 is classified as:


NORAD ID: 56462
Int'l Code: 2023-064Q
Perigee: 577.0 km
Apogee: 581.5 km
Inclination: 70.0 °
Period: 96.1 minutes
Semi major axis: 6950 km
RCS: Unknown
Launch date: May 10, 2023
Source: United States (US)
Launch site: AIR FORCE WESTERN TEST RANGE (AFWTR)
Your satellite tracking list
Your tracking list is empty




NASA's NSSDC Master Catalog

Two Line Element Set (TLE):
1 56462U 23064Q   24149.83055873 -.00001689  00000-0 -13384-3 0  9995
2 56462  69.9992 302.8015 0003243 272.2420  87.8367 14.98325594 58898
Source of the keplerian elements: AFSPC